Home > Weather > Savannah > Past weeks

Flag for USA Past Weather in Savannah, Georgia, USA — Yesterday and Last 2 Weeks

Now
78 °F

Scattered clouds.


Feels Like: 80 °F
Forecast: 63 / 82 °F
Wind: 12 mph from Southeast

Location: Hunter U. S. Army Airfield

Current Time: May 24, 2016 at 7:41:30 PM

Latest Report: May 24, 2016 at 6:58 PM


Visibility: 10 mi

Pressure: 30.10 "Hg

Humidity: 68%

Dew Point: 66 °F

Location of SavannahLocation

Past Weather in Savannah — Graph

°F

Savannah Temperature Yesterday

Maximum temperature yesterday: 83 °F (at 4:58 PM)
Minimum temperature yesterday: 58 °F (at 2:58 AM)
Average temperature yesterday: 71 °F

High & Low Weather Summary for the Past Weeks

 TemperatureHumidityPressure
High90 °F (May 13, 3:58 PM)100% (May 11, 12:59 AM)30.21 "Hg (May 11, 12:59 AM)
Low58 °F (May 16, 5:58 AM)27% (May 14, 4:58 PM)29.83 "Hg (May 22, 4:58 PM)
Average74 °F77%30.01 "Hg
* Reported May 9 5:58 PM — May 24 5:58 PM, Savannah, Weather by CustomWeather, © 2016

Note: Actual official high and low records may vary slightly from our data, if they occured in-between our weather recording intervals... More about our weather records

Advertising

Savannah Weather History for the Previous 24 Hours

Scroll right to see more
 ConditionsComfort  
Time TempWeatherWind HumidityBarometerVisibility
5:58 PM
Tue, May 24
79 °FSunny.8 mph67%30.11 "Hg10 mi
4:58 PM79 °FPartly sunny.13 mph67%30.12 "Hg10 mi
3:59 PM82 °FPassing clouds.8 mph61%30.12 "Hg10 mi
2:58 PM81 °FSunny.13 mph64%30.13 "Hg10 mi
1:58 PM81 °FScattered clouds.9 mph64%30.14 "Hg10 mi
12:58 PM79 °FBroken clouds.13 mph65%30.15 "Hg10 mi
11:58 AM80 °FScattered clouds.3 mph61%30.15 "Hg10 mi
10:58 AM79 °FPassing clouds.3 mph62%30.15 "Hg10 mi
9:58 AM78 °FSunny.5 mph66%30.14 "Hg10 mi
8:58 AM74 °FSunny.3 mph71%30.13 "Hg10 mi
7:58 AM68 °FSunny.2 mph92%30.11 "Hg7 mi
6:58 AM63 °FClear.1 mph100%30.08 "Hg10 mi
5:58 AM63 °FClear.No wind100%30.05 "Hg10 mi
4:58 AM63 °FClear.No wind100%30.04 "Hg10 mi
3:58 AM63 °FClear.No wind99%30.03 "Hg10 mi
2:58 AM64 °FClear.No wind94%30.03 "Hg10 mi
12:58 AM65 °FClear.No wind87%30.03 "Hg10 mi
11:58 PM
Mon, May 23
66 °FClear.No wind83%30.03 "Hg4 mi
11:03 PM66 °FClear.1 mph83%30.01 "Hg7 mi
10:58 PM66 °FClear.2 mph83%30.02 "Hg10 mi
9:58 PM68 °FClear.1 mph74%30.00 "Hg10 mi
8:58 PM71 °FSunny.2 mph67%29.97 "Hg10 mi
7:58 PM75 °FSunny.3 mph59%29.95 "Hg10 mi
Weather by CustomWeather, © 2016

See weather overviewHow to use our weather pages